Location: Balmoral
(33.0667°S, 151.5833°E)
Time: 01:33:25
(UTC+00:00)

MOS 1-B - Pass Details

Date: 18 September 2020
Orbit: 905 x 914 km, 99.4° (Epoch: 21 October)

Event Time Altitude Azimuth Distance (km) Brightness Sun altitude
Rises 18:50:00 0° 16° (NNE) 3,521 7.6 -12.8°
Reaches altitude 10° 18:52:23 10° 16° (NNE) 2,588 6.9 -12.3°
Maximum altitude 18:58:10 88° 102° (ESE) 922 4.4 -11.1°
Drops below altitude 10° 19:04:03 10° 193° (SSW) 2,625 6.7 -9.9°
Sets 19:06:29 0° 193° (SSW) 3,575 7.4 -9.4°
